STARLINK-11452, 62511

Orbit data source: Space-Track

STARLINK-11452, 62511 is a payload satellite owned by SpaceX/Seattle (US) in LEO that was launched on Wed, 08 Jan 2025 UTC via an FALCON 9 launch vehicle from the Air Force Eastern Test Range (AFETR). Payload-class satellites include a variety of spacecraft equipped with specific instruments for various scientific and technological missions. These include communications satellites like Starlink; space stations such as the ISS; scientific satellites like the Hubble; Earth observation satellites from companies like Planet Labs, Umbra, and HawkEye 360; GPS; miniature CubeSats for education and research; and military/defense satellites.

Loading next visibility...
Identifier
62511, 2025-004A
Orbit
LEO
Country
Flag of USUS
Related business
Manufacturer
SpaceX/Seattle
Mission
Operational Commercial Communications
Bus & Motor
STARLINK V2MD, Unknown motor
Mass
960 kg wet, ~910 kg dry
Launch date (UTC)
2025-01-08 (1 year ago)
Launch vehicle
FALCON 9
Launch site
Air Force Eastern Test Range (AFETR)
Object type
Payload
Rocket body
Debris
Shape & HBR
Box + 2 Pan, 18.1 m
Radar Cross Section
36.964 m², Large (>1 m²)

Expand to show TLE details & history
Last TLE update: 15 hours ago

TLE from 15 hours ago
0 STARLINK-11452
1 62511U 25004A   26037.75530371  .00353427  00000-0  26196-2 0  9995
2 62511  42.9966 257.1664 0001785 218.6992 141.3749 15.71046211 63266
Epoch: 2026-02-06T18:07Z
TLE epoch observation values (Epoch: 2026-02-06T18:07:38.240Z)
Latitude
0.00005°
Longitude
-151.63151°
Altitude
356.616 km
Speed
7.697 km/s
True Right ascension
17h 08m 39s
True Declination
0° 00' 00"
Sunlit
Object was in daylight at epoch
Visualization orbit readout
Latitude
Unknown
Longitude
Unknown
Altitude
Unknown
Speed
Unknown
Apparent Right ascension
Unknown
Apparent Declination
Unknown
Sunlit
N/A
Visualization observer readout
Local Sidereal Time
11:31:53
Azimuth
Unknown
Elevation
Unknown
Doppler factor
Unknown
Orbital elements
Apogee altitude
359.09 km
Perigee altitude
356.686 km
Semi-major axis
6,736.025 km
Eccentricity
0.00018
Inclination
42.9966°
RAAN
257.1664°
Arg. of periapsis
218.6992°
True anomaly
141.38767°
Mean anomaly
141.3749°
Eccentric anomaly
141.38128°
Mean motion
3.92589 °/min
Orbital period
91.7 mins
BSTAR
0.0026196
Loading maneuver chart data...
Computing Atmospheric mass density...
Loading historical data...
Loading historical data...
Loading historical data...
Loading historical data...
Loading historical data...
Loading historical data...
Loading historical data...

Documentation

Showing up to 5 results
|